Regional Weather Roundup
Issued by NWS

Home | Current Version | Previous Version | Graphics & Text | Print | Product List | Glossary On
Versions: 1 2 3 4 5 6 7 8 9 10 11 12 13 14 15 16 17 18 19 20 21 22 23 24 25 26 27 28 29 30 31 32 33 34 35 36 37 38 39 40 41 42 43 44 45 46 47 48 49 50
448
ASUS44 KMEG 200600
RWRTN
TENNESSEE HOURLY STATE WEATHER ROUNDUP
NATIONAL WEATHER SERVICE MEMPHIS TN
1200 AM CST FRI JAN 20 2017

TNZ002-004-019-021-049-052-054-088>092-200700-
WEST TENNESSEE

CITY           SKY/WX    TMP DP  RH WIND       PRES   REMARKS
MEMPHIS INTL   CLOUDY    57  55  93 S9        29.72F
NWS MEMPHIS      N/A     57 N/A N/A MISG        N/A
JACKSON        CLOUDY    57  57 100 SW9       29.71R
DYERSBURG      CLOUDY    57  54  88 SW10G17   29.69S
UNION CITY     CLOUDY   N/A N/A N/A CALM      29.67R
PARIS          CLOUDY    54  54 100 CALM      29.68S
$$

TNZ008-025-027-028-033-062-065-066-200700-
NORTH MIDDLE TENNESSEE

CITY           SKY/WX    TMP DP  RH WIND       PRES   REMARKS
NASHVILLE      CLOUDY    57  55  93 CALM      29.69S
CLARKSVILLE    LGT RAIN  56  54  93 SW5       29.67F
SMYRNA         LGT RAIN  57  56  96 S7        29.69F
CROSSVILLE     CLOUDY    53  51  93 S12G21    29.72F
$$

TNZ061-075-076-078-094-096-097-200700-
SOUTH MIDDLE TENNESSEE

CITY           SKY/WX    TMP DP  RH WIND       PRES   REMARKS
TULLAHOMA      CLOUDY    57  57 100 SW7       29.73R
WINCHESTER     CLOUDY    59  57  94 S3        29.72S
MCMINNVILLE    CLOUDY    57  57 100 CALM      29.70F
COLUMBIA       CLEAR    N/A N/A N/A SW5       29.67F
SHELBYVILLE    PTCLDY    57  57 100 S3        29.72R
$$

TNZ017-018-042-046-047-200700-
NORTHEAST TENNESSEE

CITY           SKY/WX    TMP DP  RH WIND       PRES   REMARKS
TRI CITIES     CLOUDY    50  43  77 NE3       29.80F
$$

TNZ012-013-036-069-073-074-200700-
CENTRAL EAST TENNESSEE

CITY           SKY/WX    TMP DP  RH WIND       PRES   REMARKS
KNOXVILLE      LGT RAIN  52  48  86 CALM      29.77F
OAK RIDGE      LGT RAIN  51  48  89 CALM      29.79F
GATLINBURG     MOCLDY    50  46  87 W3        29.77S
$$

TNZ083-085-099-200700-
SOUTHEAST TENNESSEE

CITY           SKY/WX    TMP DP  RH WIND       PRES   REMARKS
CHATTANOOGA    CLOUDY    55  53  93 SW5       29.77F
$$

SKY/WX REPORTED AS FAIR MEANS FEW OR NO CLOUDS BELOW
12 THOUSAND FEET.





USA.gov is the U.S. government's official web portal to all federal, state and local government web resources and services.